Time,TemperatureF,DewpointF,PressureIn,WindDirection,WindDirectionDegrees,WindSpeedMPH,WindSpeedGustMPH,Humidity,HourlyPrecipIn,Conditions,Clouds,dailyrainin,SoftwareType,DateUTC
2013-04-02 00:06:00,29.0,15.0,29.76,WNW,287,4.0,15.0,55,0.00,,,0.00,weatherlink.com 1.10,2013-04-02 04:06:00,
2013-04-02 00:21:00,28.8,15.0,29.77,WNW,287,8.0,18.0,56,0.00,,,0.00,weatherlink.com 1.10,2013-04-02 04:21:00,
2013-04-02 00:36:00,28.5,14.0,29.77,SW,228,3.0,13.0,56,0.00,,,0.00,weatherlink.com 1.10,2013-04-02 04:36:00,
2013-04-02 00:51:00,28.5,14.0,29.78,NW,307,14.0,19.0,55,0.00,,,0.00,weatherlink.com 1.10,2013-04-02 04:51:00,
2013-04-02 01:06:00,28.3,14.0,29.78,WNW,295,4.0,16.0,55,0.00,,,0.00,weatherlink.com 1.10,2013-04-02 05:06:00,
2013-04-02 01:21:00,28.0,14.0,29.79,WSW,253,3.0,15.0,56,0.00,,,0.00,weatherlink.com 1.10,2013-04-02 05:21:00,
2013-04-02 01:36:00,27.9,13.0,29.79,West,269,4.0,14.0,54,0.00,,,0.00,weatherlink.com 1.10,2013-04-02 05:36:00,
2013-04-02 01:52:00,27.8,12.0,29.79,WSW,257,6.0,17.0,52,0.00,,,0.00,weatherlink.com 1.10,2013-04-02 05:52:00,
2013-04-02 02:07:00,27.7,12.0,29.79,WNW,292,4.0,12.0,52,0.00,,,0.00,weatherlink.com 1.10,2013-04-02 06:07:00,
2013-04-02 02:22:00,27.5,11.0,29.78,NW,315,3.0,16.0,50,0.00,,,0.00,weatherlink.com 1.10,2013-04-02 06:22:00,
2013-04-02 02:37:00,27.3,12.0,29.79,West,259,2.0,14.0,52,0.00,,,0.00,weatherlink.com 1.10,2013-04-02 06:37:00,
2013-04-02 02:52:00,26.7,11.0,29.79,NW,307,4.0,8.0,52,0.00,,,0.00,weatherlink.com 1.10,2013-04-02 06:52:00,
2013-04-02 03:07:00,26.5,11.0,29.79,WSW,250,2.0,11.0,53,0.00,,,0.00,weatherlink.com 1.10,2013-04-02 07:07:00,
2013-04-02 03:22:00,26.2,12.0,29.80,WNW,302,7.0,8.0,55,0.00,,,0.00,weatherlink.com 1.10,2013-04-02 07:22:00,
2013-04-02 03:37:00,26.1,13.0,29.80,WNW,290,2.0,9.0,57,0.00,,,0.00,weatherlink.com 1.10,2013-04-02 07:37:00,
2013-04-02 03:52:00,25.8,13.0,29.79,SW,231,3.0,7.0,58,0.00,,,0.00,weatherlink.com 1.10,2013-04-02 07:52:00,
2013-04-02 04:07:00,25.4,13.0,29.80,WNW,297,2.0,5.0,59,0.00,,,0.00,weatherlink.com 1.10,2013-04-02 08:07:00,
2013-04-02 04:22:00,25.2,12.0,29.80,WNW,294,3.0,9.0,57,0.00,,,0.00,weatherlink.com 1.10,2013-04-02 08:22:00,
2013-04-02 04:37:00,25.1,12.0,29.80,West,259,3.0,8.0,58,0.00,,,0.00,weatherlink.com 1.10,2013-04-02 08:37:00,
2013-04-02 04:52:00,24.8,12.0,29.80,West,266,3.0,6.0,58,0.00,,,0.00,weatherlink.com 1.10,2013-04-02 08:52:00,
2013-04-02 05:07:00,24.4,12.0,29.80,WSW,243,3.0,7.0,59,0.00,,,0.00,weatherlink.com 1.10,2013-04-02 09:07:00,
2013-04-02 05:22:00,24.3,12.0,29.80,WSW,253,3.0,7.0,60,0.00,,,0.00,weatherlink.com 1.10,2013-04-02 09:22:00,
2013-04-02 05:37:00,24.0,12.0,29.80,West,260,1.0,10.0,61,0.00,,,0.00,weatherlink.com 1.10,2013-04-02 09:37:00,
2013-04-02 05:52:00,23.7,12.0,29.81,SW,214,1.0,7.0,61,0.00,,,0.00,weatherlink.com 1.10,2013-04-02 09:52:00,
2013-04-02 06:07:00,23.6,12.0,29.81,West,269,1.0,5.0,61,0.00,,,0.00,weatherlink.com 1.10,2013-04-02 10:07:00,
2013-04-02 06:22:00,23.2,12.0,29.82,WSW,243,2.0,6.0,62,0.00,,,0.00,weatherlink.com 1.10,2013-04-02 10:22:00,
2013-04-02 06:37:00,23.3,12.0,29.82,SW,228,0.0,6.0,63,0.00,,,0.00,weatherlink.com 1.10,2013-04-02 10:37:00,
2013-04-02 06:52:00,23.4,12.0,29.82,WNW,290,3.0,8.0,63,0.00,,,0.00,weatherlink.com 1.10,2013-04-02 10:52:00,
2013-04-02 07:07:00,24.0,13.0,29.82,SW,225,4.0,10.0,63,0.00,,,0.00,weatherlink.com 1.10,2013-04-02 11:07:00,
2013-04-02 07:22:00,24.6,14.0,29.82,South,191,2.0,11.0,63,0.00,,,0.00,weatherlink.com 1.10,2013-04-02 11:22:00,
2013-04-02 07:37:00,25.5,14.0,29.83,WSW,238,4.0,11.0,62,0.00,,,0.00,weatherlink.com 1.10,2013-04-02 11:37:00,
2013-04-02 07:52:00,26.3,14.0,29.83,West,276,5.0,21.0,59,0.00,,,0.00,weatherlink.com 1.10,2013-04-02 11:52:00,
2013-04-02 08:07:00,27.3,14.0,29.83,WNW,292,3.0,14.0,57,0.00,,,0.00,weatherlink.com 1.10,2013-04-02 12:07:00,
2013-04-02 08:22:00,28.0,14.0,29.83,West,276,6.0,15.0,55,0.00,,,0.00,weatherlink.com 1.10,2013-04-02 12:22:00,
2013-04-02 08:38:00,28.4,13.0,29.83,WSW,253,8.0,19.0,53,0.00,,,0.00,weatherlink.com 1.10,2013-04-02 12:38:00,
2013-04-02 08:52:00,29.0,13.0,29.84,SW,226,7.0,20.0,51,0.00,,,0.00,weatherlink.com 1.10,2013-04-02 12:52:00,
2013-04-02 09:07:00,29.4,12.0,29.84,WNW,290,4.0,18.0,49,0.00,,,0.00,weatherlink.com 1.10,2013-04-02 13:07:00,
2013-04-02 09:22:00,29.7,12.0,29.84,West,274,11.0,29.0,47,0.00,,,0.00,weatherlink.com 1.10,2013-04-02 13:22:00,
2013-04-02 09:38:00,29.5,11.0,29.84,WNW,287,7.0,19.0,47,0.00,,,0.00,weatherlink.com 1.10,2013-04-02 13:38:00,
2013-04-02 09:53:00,30.5,10.0,29.83,WNW,291,5.0,19.0,42,0.00,,,0.00,weatherlink.com 1.10,2013-04-02 13:53:00,
2013-04-02 10:08:00,31.5,11.0,29.83,WSW,253,10.0,20.0,43,0.00,,,0.00,weatherlink.com 1.10,2013-04-02 14:08:00,
2013-04-02 10:23:00,32.1,11.0,29.84,West,281,4.0,15.0,41,0.00,,,0.00,weatherlink.com 1.10,2013-04-02 14:23:00,
2013-04-02 10:38:00,30.5,11.0,29.84,West,259,5.0,16.0,45,0.00,,,0.00,weatherlink.com 1.10,2013-04-02 14:38:00,
2013-04-02 10:53:00,30.1,11.0,29.84,NW,315,6.0,19.0,45,0.00,,,0.00,weatherlink.com 1.10,2013-04-02 14:53:00,
2013-04-02 11:08:00,30.1,11.0,29.84,WSW,257,11.0,19.0,46,0.00,,,0.00,weatherlink.com 1.10,2013-04-02 15:08:00,
2013-04-02 11:23:00,31.9,12.0,29.84,WSW,238,15.0,21.0,43,0.00,,,0.00,weatherlink.com 1.10,2013-04-02 15:23:00,
2013-04-02 11:38:00,32.2,12.0,29.84,SW,230,5.0,19.0,43,0.00,,,0.00,weatherlink.com 1.10,2013-04-02 15:38:00,
2013-04-02 11:53:00,31.0,16.0,29.84,WNW,293,6.0,18.0,53,0.00,,,0.00,weatherlink.com 1.10,2013-04-02 15:53:00,
2013-04-02 12:08:00,29.9,15.0,29.84,WNW,290,12.0,23.0,55,0.00,,,0.00,weatherlink.com 1.10,2013-04-02 16:08:00,
2013-04-02 12:23:00,32.0,16.0,29.83,SW,214,6.0,20.0,53,0.00,,,0.00,weatherlink.com 1.10,2013-04-02 16:23:00,
2013-04-02 12:38:00,31.9,15.0,29.82,West,280,13.0,20.0,50,0.00,,,0.00,weatherlink.com 1.10,2013-04-02 16:38:00,
2013-04-02 12:53:00,30.7,15.0,29.82,SSE,154,17.0,20.0,53,0.00,,,0.00,weatherlink.com 1.10,2013-04-02 16:53:00,
2013-04-02 13:08:00,32.1,14.0,29.82,West,263,10.0,18.0,48,0.00,,,0.00,weatherlink.com 1.10,2013-04-02 17:08:00,
2013-04-02 13:23:00,32.4,13.0,29.81,West,270,16.0,19.0,44,0.00,,,0.00,weatherlink.com 1.10,2013-04-02 17:23:00,
2013-04-02 13:38:00,33.0,12.0,29.81,WSW,245,12.0,18.0,42,0.00,,,0.00,weatherlink.com 1.10,2013-04-02 17:38:00,
2013-04-02 13:53:00,33.3,13.0,29.81,West,263,10.0,19.0,44,0.00,,,0.00,weatherlink.com 1.10,2013-04-02 17:53:00,
2013-04-02 14:08:00,33.5,11.0,29.80,WNW,287,6.0,25.0,39,0.00,,,0.00,weatherlink.com 1.10,2013-04-02 18:08:00,
2013-04-02 14:23:00,32.5,11.0,29.80,WNW,285,13.0,24.0,41,0.00,,,0.00,weatherlink.com 1.10,2013-04-02 18:23:00,
2013-04-02 14:38:00,33.7,10.0,29.80,WSW,249,14.0,20.0,38,0.00,,,0.00,weatherlink.com 1.10,2013-04-02 18:38:00,
2013-04-02 14:53:00,33.4,9.0,29.80,North,360,9.0,27.0,36,0.00,,,0.00,weatherlink.com 1.10,2013-04-02 18:53:00,
2013-04-02 15:08:00,33.3,11.0,29.80,ESE,107,2.0,21.0,39,0.00,,,0.00,weatherlink.com 1.10,2013-04-02 19:08:00,
2013-04-02 15:23:00,33.2,11.0,29.80,WNW,301,8.0,24.0,40,0.00,,,0.00,weatherlink.com 1.10,2013-04-02 19:23:00,
2013-04-02 15:38:00,33.2,10.0,29.80,West,271,8.0,20.0,38,0.00,,,0.00,weatherlink.com 1.10,2013-04-02 19:38:00,
2013-04-02 15:53:00,32.7,12.0,29.81,NW,306,7.0,20.0,42,0.00,,,0.00,weatherlink.com 1.10,2013-04-02 19:53:00,
2013-04-02 16:08:00,33.3,12.0,29.80,West,259,6.0,17.0,42,0.00,,,0.00,weatherlink.com 1.10,2013-04-02 20:08:00,
2013-04-02 16:23:00,32.8,12.0,29.81,WNW,294,8.0,16.0,42,0.00,,,0.00,weatherlink.com 1.10,2013-04-02 20:23:00,
2013-04-02 16:38:00,32.8,10.0,29.81,SW,232,9.0,26.0,38,0.00,,,0.00,weatherlink.com 1.10,2013-04-02 20:38:00,
2013-04-02 16:55:00,32.2,10.0,29.81,NW,322,6.0,27.0,40,0.00,,,0.00,weatherlink.com 1.10,2013-04-02 20:55:00,
2013-04-02 17:08:00,32.0,11.0,29.82,West,280,6.0,22.0,42,0.00,,,0.00,weatherlink.com 1.10,2013-04-02 21:08:00,
2013-04-02 17:23:00,32.2,12.0,29.82,WSW,240,9.0,25.0,44,0.00,,,0.00,weatherlink.com 1.10,2013-04-02 21:23:00,
2013-04-02 17:38:00,31.7,11.0,29.83,West,281,7.0,25.0,42,0.00,,,0.00,weatherlink.com 1.10,2013-04-02 21:38:00,
2013-04-02 17:53:00,31.5,11.0,29.84,West,276,14.0,17.0,43,0.00,,,0.00,weatherlink.com 1.10,2013-04-02 21:53:00,
2013-04-02 18:08:00,31.0,11.0,29.85,West,281,14.0,20.0,43,0.00,,,0.00,weatherlink.com 1.10,2013-04-02 22:08:00,
2013-04-02 18:23:00,30.8,12.0,29.85,West,266,3.0,16.0,45,0.00,,,0.00,weatherlink.com 1.10,2013-04-02 22:23:00,
2013-04-02 18:38:00,30.7,11.0,29.86,WSW,253,8.0,17.0,44,0.00,,,0.00,weatherlink.com 1.10,2013-04-02 22:38:00,
2013-04-02 18:53:00,30.3,11.0,29.86,NNW,342,4.0,13.0,44,0.00,,,0.00,weatherlink.com 1.10,2013-04-02 22:53:00,
2013-04-02 19:08:00,30.2,11.0,29.87,WNW,297,6.0,13.0,45,0.00,,,0.00,weatherlink.com 1.10,2013-04-02 23:08:00,
2013-04-02 19:23:00,30.0,11.0,29.87,WSW,250,10.0,26.0,45,0.00,,,0.00,weatherlink.com 1.10,2013-04-02 23:23:00,
2013-04-02 19:38:00,29.6,11.0,29.87,West,269,6.0,13.0,47,0.00,,,0.00,weatherlink.com 1.10,2013-04-02 23:38:00,
2013-04-02 19:53:00,29.6,11.0,29.88,SW,219,8.0,16.0,47,0.00,,,0.00,weatherlink.com 1.10,2013-04-02 23:53:00,
2013-04-02 20:08:00,29.4,12.0,29.88,WNW,287,4.0,28.0,48,0.00,,,0.00,weatherlink.com 1.10,2013-04-03 00:08:00,
2013-04-02 20:23:00,29.0,12.0,29.89,WNW,299,12.0,20.0,50,0.00,,,0.00,weatherlink.com 1.10,2013-04-03 00:23:00,
2013-04-02 20:53:00,28.8,12.0,29.90,WNW,297,4.0,14.0,50,0.00,,,0.00,weatherlink.com 1.10,2013-04-03 00:53:00,
2013-04-02 21:08:00,28.9,13.0,29.90,West,259,6.0,12.0,51,0.00,,,0.00,weatherlink.com 1.10,2013-04-03 01:08:00,
2013-04-02 21:23:00,28.7,13.0,29.91,West,263,2.0,14.0,52,0.00,,,0.00,weatherlink.com 1.10,2013-04-03 01:23:00,
2013-04-02 21:53:00,28.3,13.0,29.90,WNW,293,13.0,18.0,53,0.00,,,0.00,weatherlink.com 1.10,2013-04-03 01:53:00,
2013-04-02 22:08:00,28.4,14.0,29.90,WSW,257,3.0,14.0,55,0.00,,,0.00,weatherlink.com 1.10,2013-04-03 02:08:00,
2013-04-02 22:23:00,28.5,14.0,29.90,West,276,5.0,19.0,56,0.00,,,0.00,weatherlink.com 1.10,2013-04-03 02:23:00,
2013-04-02 22:39:00,28.5,15.0,29.90,NNW,330,6.0,14.0,57,0.00,,,0.00,weatherlink.com 1.10,2013-04-03 02:39:00,
2013-04-02 22:53:00,28.4,15.0,29.90,WNW,300,7.0,16.0,58,0.00,,,0.00,weatherlink.com 1.10,2013-04-03 02:53:00,
2013-04-02 23:09:00,28.4,15.0,29.89,West,259,3.0,20.0,58,0.00,,,0.00,weatherlink.com 1.10,2013-04-03 03:09:00,
2013-04-02 23:24:00,28.3,15.0,29.91,WNW,293,5.0,19.0,58,0.00,,,0.00,weatherlink.com 1.10,2013-04-03 03:24:00,
2013-04-02 23:39:00,28.1,14.0,29.91,WSW,250,6.0,14.0,57,0.00,,,0.00,weatherlink.com 1.10,2013-04-03 03:39:00,
2013-04-02 23:54:00,27.7,14.0,29.90,West,270,7.0,13.0,57,0.00,,,0.00,weatherlink.com 1.10,2013-04-03 03:54:00,